Regional Weather Roundup
Issued by NWS

Home | Current Version | Previous Version | Graphics & Text | Print | Product List | Glossary On
Versions: 1 2 3 4 5 6 7 8 9 10 11 12 13 14 15 16 17 18 19 20 21 22 23 24 25 26 27 28 29 30 31 32 33 34 35 36 37 38 39 40 41 42 43 44 45 46 47 48 49 50
000
ASUS45 KCYS 211510
RWRWY

WYOMING REGIONAL WEATHER ROUNDUP
NATIONAL WEATHER SERVICE CHEYENNE WY
900 AM MDT TUE OCT 21 2014

NOTE:  "FAIR" INDICATES FEW OR NO CLOUDS BELOW 12,000 FEET
WITH NO SIGNIFICANT WEATHER AND/OR OBSTRUCTIONS TO VISIBILITY.

WYZ001-211600-
YELLOWSTONE NATIONAL PARK

CITY           SKY/WX    TMP DP  RH WIND       PRES   REMARKS
LK YELLOWSTONE   N/A     35  34  96 NW3       30.00S
W YELLOWSTONE  NOT AVBL

$$
WYZ002>013-054>058-071-098>099-211600-
NORTHERN WYOMING

CITY           SKY/WX    TMP DP  RH WIND       PRES   REMARKS
JACKSON        CLOUDY    39  37  93 CALM      29.95S
CODY           CLOUDY   N/A N/A N/A SW3       29.82S
GREYBULL       SUNNY     43  27  53 CALM      29.81S
WORLAND        SUNNY     48  32  53 CALM      29.82R
SHERIDAN       SUNNY     55  36  48 CALM      29.76F
BUFFALO        SUNNY     66  31  27 SW12      29.83F
GILLETTE       SUNNY     66  37  34 SW25G36   29.81S
HULETT         FAIR      64  36  34 S17G24    29.84
NEWCASTLE      FAIR      61  34  36 SE8       29.91

$$
WYZ014>020-022>026-101>103-211600-
CENTRAL WYOMING

CITY           SKY/WX    TMP DP  RH WIND       PRES   REMARKS
BIG PINEY      MOSUNNY   36  30  79 CALM      30.03R
PINEDALE       MOSUNNY   39  36  87 CALM      30.03F
DUBOIS         FAIR      43  36  75 N6        29.97S
LANDER         MOSUNNY   59  37  44 W10       29.92R HAZE
RIVERTON       PTSUNNY   50  30  46 W14       29.94R
CASPER         SUNNY     56  36  47 SW20      29.94S
DOUGLAS        MOSUNNY   51  37  58 S5        29.96S

$$
WYZ021-027>030-104>119-211600-
SOUTHERN WYOMING

CITY           SKY/WX    TMP DP  RH WIND       PRES   REMARKS
EVANSTON       MOSUNNY   49  37  63 SW12      30.02R
KEMMERER       PTSUNNY   48  37  66 S7        30.02S
FORT BRIDGER   FAIR      51  37  57 S8G16     30.06R
ROCK SPRINGS   MOSUNNY   52  36  54 S9        30.03S
RAWLINS        MOSUNNY   54  37  52 SW15      30.06S
SARATOGA       CLOUDY    50  36  57 S7        30.11R
LARAMIE        PTSUNNY   47  37  68 SE7       30.11S
CHEYENNE       MOSUNNY   60  37  42 W8        30.05S
TORRINGTON     PTSUNNY   44  36  73 CALM      29.97R
PINE BLUFFS    FAIR      50  39  66 SE3       30.03S

$$


USA.gov is the U.S. government's official web portal to all federal, state and local government web resources and services.